Silver Bergen — LAHO6 — position and weather

sailwx.info

Track history (hours):
 
Tides and Currents Weather Stations Pressure Air Temp Water Temp Dewpoint Dewpoint Depression Visibility Wind Speed Wind Dir Waves Ship Positions

Silver Bergen

Last reported at 2014-Jul-28 19:05 UTC. Time now 2014-Aug-22 15:45 UTC.
Position N 63°46' E 007°54'.
Warning: this ship's position is 24 days out of date.

Length 97 m; draft 4.5 m.

Type: Cargo ship. MMSI: 257951000.

Date/timePositionNaut miles runAvg speedWind from/ knotsBaromVisibWave heightAir tempDewpointWater temp
2014-Jul-28 19:05N 63°46' E 007°54'29113.3
2014-Jul-27 21:11N 59°09' E 004°49'1015.4
2014-Jul-27 20:33N 59°01' E 004°59'1514.9
2014-Jul-27 19:33N 58°48' E 005°15'1615.2
2014-Jul-27 18:30N 58°35' E 005°31'1515.5
2014-Jul-27 17:34N 58°23' E 005°48'1514.7
2014-Jul-27 16:33N 58°13' E 006°08'1413.9
2014-Jul-27 15:33N 58°04' E 006°28'12314.4
2014-Jul-27 07:04N 57°50' E 010°18'714.5
2014-Jul-27 06:34N 57°49' E 010°31'1313.5
2014-Jul-27 05:34N 57°44' E 010°54'1413.9
2014-Jul-27 04:33N 57°34' E 011°14'1414.1
2014-Jul-27 03:33N 57°23' E 011°30'1414.3
2014-Jul-27 02:33N 57°10' E 011°40'1414.2
2014-Jul-27 01:33N 56°57' E 011°52'1414.5
2014-Jul-27 00:33N 56°44' E 012°03'1514.9
2014-Jul-26 23:33N 56°30' E 012°14'1615.8
2014-Jul-26 22:34N 56°16' E 012°25'1615.8
2014-Jul-26 21:33N 56°02' E 012°40'1414.3
2014-Jul-26 20:33N 55°48' E 012°43'1414.4
2014-Jul-26 19:33N 55°34' E 012°42'1414.3
2014-Jul-26 18:33N 55°20' E 012°40'1414.0
2014-Jul-26 17:33N 55°15' E 013°04'1514.7
2014-Jul-26 16:33N 55°15' E 013°30'4413.5
2014-Jul-26 13:19N 55°29' E 014°42'1614.4
2014-Jul-26 12:12N 55°37' E 015°07'913.9
2014-Jul-26 11:33N 55°42' E 015°21'1414.5
2014-Jul-26 10:33N 55°49' E 015°43'1514.6
2014-Jul-26 09:33N 55°57' E 016°05'1714.7
2014-Jul-26 08:23N 56°05' E 016°32'1414.6
2014-Jul-26 07:26N 56°13' E 016°52'1314.7
2014-Jul-26 06:33N 56°21' E 017°11'1714.6
2014-Jul-26 05:25N 56°31' E 017°34'1314.6
2014-Jul-26 04:33N 56°39' E 017°53'1414.6
2014-Jul-26 03:33N 56°48' E 018°14'1514.6
2014-Jul-26 02:33N 56°58' E 018°33'2914.6
2014-Jul-26 00:33N 57°21' E 019°04'6214.6
2014-Jul-25 20:19N 58°11' E 020°15'1114.6
2014-Jul-25 19:33N 58°20' E 020°27'1514.6
2014-Jul-25 18:31N 58°32' E 020°45'1414.7
2014-Jul-25 17:33N 58°43' E 021°01'1814.9
2014-Jul-25 16:20N 58°57' E 021°23'1214.7
2014-Jul-25 15:30N 59°07' E 021°38'1414.5
2014-Jul-25 14:33N 59°16' E 021°58'1414.4
2014-Jul-25 13:33N 59°24' E 022°20'1414.3
2014-Jul-25 12:33N 59°31' E 022°45'1514.8
2014-Jul-25 11:33N 59°36' E 023°13'1514.7
2014-Jul-25 10:33N 59°40' E 023°41'1514.9
2014-Jul-25 09:33N 59°44' E 024°09'1514.7
2014-Jul-25 08:33N 59°48' E 024°38'1414.4
2014-Jul-25 07:33N 59°51' E 025°06'1414.5
2014-Jul-25 06:33N 59°54' E 025°34'1414.4
2014-Jul-25 05:33N 59°57' E 026°02'1414.4
2014-Jul-25 04:33N 60°01' E 026°30'1414.0
2014-Jul-25 03:33N 59°59' E 026°58'1413.7
2014-Jul-25 02:32N 60°05' E 027°23'  
2014-Jul-21 06:06N 59°00' E 021°44'1114.4
2014-Jul-21 05:20N 58°52' E 021°30'10214.7
2014-Jul-20 22:24N 57°32' E 019°30'4114.5
2014-Jul-20 19:33N 56°59' E 018°45'1414.4
2014-Jul-20 18:33N 56°47' E 018°29'1514.3
2014-Jul-20 17:30N 56°38' E 018°07'5714.5
2014-Jul-20 13:32N 56°03' E 016°44'1913.9
2014-Jul-20 12:12N 55°55' E 016°15'913.9
2014-Jul-20 11:33N 55°50' E 016°01'1414.0
2014-Jul-20 10:33N 55°44' E 015°39'1413.9
2014-Jul-20 09:33N 55°37' E 015°18'1413.9
2014-Jul-20 08:33N 55°30' E 014°56'1413.6
2014-Jul-20 07:33N 55°23' E 014°36'1413.8
2014-Jul-20 06:33N 55°12' E 014°20'1313.1
2014-Jul-20 05:33N 55°10' E 013°58'1413.6
2014-Jul-20 04:34N 55°10' E 013°34'1413.6
2014-Jul-20 03:33N 55°11' E 013°10'1212.3
2014-Jul-20 02:33N 55°15' E 012°50'1110.6
2014-Jul-20 01:34N 55°24' E 012°40'1312.9
2014-Jul-20 00:33N 55°37' E 012°42'1313.0
2014-Jul-19 23:33N 55°50' E 012°41'1313.4
2014-Jul-19 22:33N 56°03' E 012°39'1312.5
2014-Jul-19 21:33N 56°12' E 012°22'1413.9
2014-Jul-19 20:33N 56°23' E 012°09'1413.9
2014-Jul-19 19:33N 56°36' E 011°56'1414.2
2014-Jul-19 18:33N 56°49' E 011°49'1414.3
2014-Jul-19 17:33N 57°03' E 011°40'1413.8
2014-Jul-19 16:34N 57°15' E 011°31'1414.3
2014-Jul-19 15:34N 57°29' E 011°20'1514.5
2014-Jul-19 14:34N 57°38' E 011°00'1413.9
2014-Jul-19 13:34N 57°47' E 010°40'1414.4
2014-Jul-19 12:34N 57°46' E 010°13'1414.2
2014-Jul-19 11:33N 57°45' E 009°46'3414.7
2014-Jul-19 09:12N 57°44' E 008°41'914.2
2014-Jul-19 08:32N 57°43' E 008°24'7414.1
2014-Jul-19 03:15N 58°05' E 006°10'  
Track history (hours):
 
Tides and Currents Weather Stations Pressure Air Temp Water Temp Dewpoint Dewpoint Depression Visibility Wind Speed Wind Dir Waves Ship Positions

Silver Bergen

Last reported at 2014-Jul-28 19:05 UTC. Time now 2014-Aug-22 15:45 UTC.
Position N 63°46' E 007°54'.
Warning: this ship's position is 24 days out of date.

Length 97 m; draft 4.5 m.

Type: Cargo ship. MMSI: 257951000.

Date/timePositionNaut miles runAvg speedWind from/ knotsBaromVisibWave heightAir tempDewpointWater temp
2014-Jul-28 19:05N 63°46' E 007°54'29113.3
2014-Jul-27 21:11N 59°09' E 004°49'1015.4
2014-Jul-27 20:33N 59°01' E 004°59'1514.9
2014-Jul-27 19:33N 58°48' E 005°15'1615.2
2014-Jul-27 18:30N 58°35' E 005°31'1515.5
2014-Jul-27 17:34N 58°23' E 005°48'1514.7
2014-Jul-27 16:33N 58°13' E 006°08'1413.9
2014-Jul-27 15:33N 58°04' E 006°28'12314.4
2014-Jul-27 07:04N 57°50' E 010°18'714.5
2014-Jul-27 06:34N 57°49' E 010°31'1313.5
2014-Jul-27 05:34N 57°44' E 010°54'1413.9
2014-Jul-27 04:33N 57°34' E 011°14'1414.1
2014-Jul-27 03:33N 57°23' E 011°30'1414.3
2014-Jul-27 02:33N 57°10' E 011°40'1414.2
2014-Jul-27 01:33N 56°57' E 011°52'1414.5
2014-Jul-27 00:33N 56°44' E 012°03'1514.9
2014-Jul-26 23:33N 56°30' E 012°14'1615.8
2014-Jul-26 22:34N 56°16' E 012°25'1615.8
2014-Jul-26 21:33N 56°02' E 012°40'1414.3
2014-Jul-26 20:33N 55°48' E 012°43'1414.4
2014-Jul-26 19:33N 55°34' E 012°42'1414.3
2014-Jul-26 18:33N 55°20' E 012°40'1414.0
2014-Jul-26 17:33N 55°15' E 013°04'1514.7
2014-Jul-26 16:33N 55°15' E 013°30'4413.5
2014-Jul-26 13:19N 55°29' E 014°42'1614.4
2014-Jul-26 12:12N 55°37' E 015°07'913.9
2014-Jul-26 11:33N 55°42' E 015°21'1414.5
2014-Jul-26 10:33N 55°49' E 015°43'1514.6
2014-Jul-26 09:33N 55°57' E 016°05'1714.7
2014-Jul-26 08:23N 56°05' E 016°32'1414.6
2014-Jul-26 07:26N 56°13' E 016°52'1314.7
2014-Jul-26 06:33N 56°21' E 017°11'1714.6
2014-Jul-26 05:25N 56°31' E 017°34'1314.6
2014-Jul-26 04:33N 56°39' E 017°53'1414.6
2014-Jul-26 03:33N 56°48' E 018°14'1514.6
2014-Jul-26 02:33N 56°58' E 018°33'2914.6
2014-Jul-26 00:33N 57°21' E 019°04'6214.6
2014-Jul-25 20:19N 58°11' E 020°15'1114.6
2014-Jul-25 19:33N 58°20' E 020°27'1514.6
2014-Jul-25 18:31N 58°32' E 020°45'1414.7
2014-Jul-25 17:33N 58°43' E 021°01'1814.9
2014-Jul-25 16:20N 58°57' E 021°23'1214.7
2014-Jul-25 15:30N 59°07' E 021°38'1414.5
2014-Jul-25 14:33N 59°16' E 021°58'1414.4
2014-Jul-25 13:33N 59°24' E 022°20'1414.3
2014-Jul-25 12:33N 59°31' E 022°45'1514.8
2014-Jul-25 11:33N 59°36' E 023°13'1514.7
2014-Jul-25 10:33N 59°40' E 023°41'1514.9
2014-Jul-25 09:33N 59°44' E 024°09'1514.7
2014-Jul-25 08:33N 59°48' E 024°38'1414.4
2014-Jul-25 07:33N 59°51' E 025°06'1414.5
2014-Jul-25 06:33N 59°54' E 025°34'1414.4
2014-Jul-25 05:33N 59°57' E 026°02'1414.4
2014-Jul-25 04:33N 60°01' E 026°30'1414.0
2014-Jul-25 03:33N 59°59' E 026°58'1413.7
2014-Jul-25 02:32N 60°05' E 027°23'  
2014-Jul-21 06:06N 59°00' E 021°44'1114.4
2014-Jul-21 05:20N 58°52' E 021°30'10214.7
2014-Jul-20 22:24N 57°32' E 019°30'4114.5
2014-Jul-20 19:33N 56°59' E 018°45'1414.4
2014-Jul-20 18:33N 56°47' E 018°29'1514.3
2014-Jul-20 17:30N 56°38' E 018°07'5714.5
2014-Jul-20 13:32N 56°03' E 016°44'1913.9
2014-Jul-20 12:12N 55°55' E 016°15'913.9
2014-Jul-20 11:33N 55°50' E 016°01'1414.0
2014-Jul-20 10:33N 55°44' E 015°39'1413.9
2014-Jul-20 09:33N 55°37' E 015°18'1413.9
2014-Jul-20 08:33N 55°30' E 014°56'1413.6
2014-Jul-20 07:33N 55°23' E 014°36'1413.8
2014-Jul-20 06:33N 55°12' E 014°20'1313.1
2014-Jul-20 05:33N 55°10' E 013°58'1413.6
2014-Jul-20 04:34N 55°10' E 013°34'1413.6
2014-Jul-20 03:33N 55°11' E 013°10'1212.3
2014-Jul-20 02:33N 55°15' E 012°50'1110.6
2014-Jul-20 01:34N 55°24' E 012°40'1312.9
2014-Jul-20 00:33N 55°37' E 012°42'1313.0
2014-Jul-19 23:33N 55°50' E 012°41'1313.4
2014-Jul-19 22:33N 56°03' E 012°39'1312.5
2014-Jul-19 21:33N 56°12' E 012°22'1413.9
2014-Jul-19 20:33N 56°23' E 012°09'1413.9
2014-Jul-19 19:33N 56°36' E 011°56'1414.2
2014-Jul-19 18:33N 56°49' E 011°49'1414.3
2014-Jul-19 17:33N 57°03' E 011°40'1413.8
2014-Jul-19 16:34N 57°15' E 011°31'1414.3
2014-Jul-19 15:34N 57°29' E 011°20'1514.5
2014-Jul-19 14:34N 57°38' E 011°00'1413.9
2014-Jul-19 13:34N 57°47' E 010°40'1414.4
2014-Jul-19 12:34N 57°46' E 010°13'1414.2
2014-Jul-19 11:33N 57°45' E 009°46'3414.7
2014-Jul-19 09:12N 57°44' E 008°41'914.2
2014-Jul-19 08:32N 57°43' E 008°24'7414.1
2014-Jul-19 03:15N 58°05' E 006°10'  

Dump ship's entire track history